Flag for Norway Weather past 2 weeks in Bryne, Norway

Now
41 °F

Quite cool.


Feels Like: 36 °F
Forecast: 33 / 46 °F
Wind: 7 mph from Northwest

Location: Obrestad

Current Time: Apr 27, 2015 at 11:45:18 PM

Latest Report: Apr 27, 2015 at 10:00 PM


Visibility: N/A

Pressure: 29.73 "Hg

Humidity: 77%

Dew point: 34 °F

Location of BryneLocation

Historic Weather in Bryne — Graph

°F

Bryne temperature yesterday

Maximum temperature yesterday: 46 °F (at 3:00 PM)
Minimum temperature yesterday: 38 °F (at 11:00 PM)
Average temperature yesterday: 43 °F

Past Weeks' High & Low Weather Summary

 TemperatureHumidityPressure
High54 °F (Apr 19, 11:00 AM)100% (Apr 21, 1:00 AM)30.46 "Hg (Apr 21, 1:00 AM)
Low34 °F (Apr 27, 3:00 AM)46% (Apr 19, 11:00 AM)29.32 "Hg (Apr 25, 1:00 PM)
Average43 °F85%30.00 "Hg
* Reported Apr 12 10:00 PM — Apr 27 10:00 PM, Bryne, Weather by CustomWeather, © 2015

Note: Actual official high and low records may vary slightly from our data, if they occured in-between our weather recording intervals... More about our weather records

Advertising

Bryne weather history for previous 24 hours

 ConditionsComfort  
Time TempWeatherWind HumidityBarometerVisibility
10:00 PM
Mon, Apr 27
41 °FQuite cool.7 mph77%29.73 "HgN/A
9:00 PM41 °FQuite cool.8 mph81%29.72 "HgN/A
8:00 PM41 °FQuite cool.8 mph83%29.70 "HgN/A
7:00 PM41 °FQuite cool.8 mph84%29.69 "HgN/A
6:00 PM42 °FQuite cool.7 mph82%29.67 "HgN/A
5:00 PM41 °FQuite cool.7 mph79%29.65 "HgN/A
4:00 PM40 °FChilly.5 mph86%29.64 "HgN/A
3:00 PM41 °FQuite cool.5 mph81%29.62 "HgN/A
2:00 PM39 °FChilly.3 mph90%29.61 "HgN/A
1:00 PM36 °FChilly.9 mph90%29.61 "HgN/A
12:00 PM42 °FQuite cool.7 mph80%29.59 "HgN/A
11:00 AM43 °FQuite cool.8 mph70%29.58 "HgN/A
10:00 AM44 °FQuite cool.7 mph67%29.59 "HgN/A
9:00 AM42 °FQuite cool.6 mph70%29.60 "HgN/A
8:00 AM39 °FChilly.6 mph81%29.61 "HgN/A
7:00 AM38 °FChilly.5 mph79%29.62 "HgN/A
6:00 AM35 °FChilly.5 mph87%29.62 "HgN/A
5:00 AM35 °FChilly.5 mph88%29.64 "HgN/A
4:00 AM34 °FChilly.3 mph90%29.65 "HgN/A
3:00 AM34 °FChilly.3 mph91%29.66 "HgN/A
2:00 AM35 °FChilly.2 mph90%29.67 "HgN/A
1:00 AM36 °FChilly.2 mph85%29.68 "HgN/A
12:00 AM38 °FChilly.2 mph82%29.69 "HgN/A
11:00 PM
Sun, Apr 26
38 °FChilly.2 mph78%29.69 "HgN/A
Weather by CustomWeather, © 2015

See weather overviewHow to use our weather pages